Time,TemperatureF,DewpointF,PressureIn,WindDirection,WindDirectionDegrees,WindSpeedMPH,WindSpeedGustMPH,Humidity,HourlyPrecipIn,Conditions,Clouds,dailyrainin,SoftwareType,DateUTC
2014-02-16 00:00:00,29.0,22.0,30.09,North,0,0.0,-999.0,74,-99.99,,,-99.99,,2014-02-16 00:00:00,
2014-02-16 00:42:00,29.0,22.0,30.09,North,0,0.0,-999.0,74,-99.99,,,-99.99,,2014-02-16 00:42:00,
2014-02-16 00:52:00,29.0,22.0,30.09,North,0,0.0,-999.0,74,-99.99,,,-99.99,,2014-02-16 00:52:00,
2014-02-16 01:00:00,28.0,23.0,30.12,East,80,6.0,-999.0,81,-99.99,,,-99.99,,2014-02-16 01:00:00,
2014-02-16 01:42:00,28.0,23.0,30.12,East,80,6.0,-999.0,81,-99.99,,,-99.99,,2014-02-16 01:42:00,
2014-02-16 01:52:00,28.0,23.0,30.12,East,80,6.0,-999.0,81,-99.99,,,-99.99,,2014-02-16 01:52:00,
2014-02-16 02:00:00,27.0,23.0,30.14,ENE,60,6.0,-999.0,84,-99.99,,,-99.99,,2014-02-16 02:00:00,
2014-02-16 02:42:00,27.0,23.0,30.14,ENE,60,6.0,-999.0,84,-99.99,,,-99.99,,2014-02-16 02:42:00,
2014-02-16 02:52:00,27.0,23.0,30.14,ENE,60,6.0,-999.0,84,-99.99,,,-99.99,,2014-02-16 02:52:00,
2014-02-16 03:00:00,-999.0,-99.9,-100.00,ENE,60,6.0,-999.0,-999,-99.99,,,-99.99,,2014-02-16 03:00:00,
2014-02-16 03:43:00,26.0,22.0,30.14,ENE,60,6.0,-999.0,83,-99.99,,,-99.99,,2014-02-16 03:43:00,
2014-02-16 03:53:00,26.0,22.0,30.14,ENE,60,6.0,-999.0,83,-99.99,,,-99.99,,2014-02-16 03:53:00,
2014-02-16 04:00:00,26.0,22.0,30.15,ENE,60,9.0,-999.0,82,-99.99,,,-99.99,,2014-02-16 04:00:00,
2014-02-16 04:43:00,26.0,22.0,30.15,ENE,60,9.0,-999.0,82,-99.99,,,-99.99,,2014-02-16 04:43:00,
2014-02-16 04:53:00,26.0,22.0,30.15,ENE,60,9.0,-999.0,82,-99.99,,,-99.99,,2014-02-16 04:53:00,
2014-02-16 05:00:00,26.0,22.0,30.14,ENE,70,8.0,-999.0,82,-99.99,,,-99.99,,2014-02-16 05:00:00,
2014-02-16 05:42:00,26.0,22.0,30.14,ENE,70,8.0,-999.0,82,-99.99,,,-99.99,,2014-02-16 05:42:00,
2014-02-16 05:52:00,26.0,22.0,30.14,ENE,70,8.0,-999.0,82,-99.99,,,-99.99,,2014-02-16 05:52:00,
2014-02-16 06:00:00,26.0,23.0,30.12,ENE,70,13.0,-999.0,86,-99.99,,,-99.99,,2014-02-16 06:00:00,
2014-02-16 06:42:00,26.0,23.0,30.12,ENE,70,13.0,-999.0,86,-99.99,,,-99.99,,2014-02-16 06:42:00,
2014-02-16 06:52:00,26.0,23.0,30.12,ENE,70,13.0,-999.0,86,-99.99,,,-99.99,,2014-02-16 06:52:00,
2014-02-16 07:00:00,26.0,23.0,30.08,East,90,15.0,-999.0,88,-99.99,,,-99.99,,2014-02-16 07:00:00,
2014-02-16 07:42:00,26.0,23.0,30.08,East,90,15.0,-999.0,88,-99.99,,,-99.99,,2014-02-16 07:42:00,
2014-02-16 07:52:00,26.0,23.0,30.08,East,90,15.0,-999.0,88,-99.99,,,-99.99,,2014-02-16 07:52:00,
2014-02-16 08:00:00,26.0,24.0,30.05,East,80,18.0,-999.0,90,-99.99,,,-99.99,,2014-02-16 08:00:00,
2014-02-16 08:42:00,26.0,24.0,30.05,East,80,18.0,-999.0,90,-99.99,,,-99.99,,2014-02-16 08:42:00,
2014-02-16 08:52:00,26.0,24.0,30.05,East,80,18.0,-999.0,90,-99.99,,,-99.99,,2014-02-16 08:52:00,
2014-02-16 09:00:00,26.0,23.0,30.03,East,80,22.0,-999.0,89,-99.99,,,-99.99,,2014-02-16 09:00:00,
2014-02-16 09:42:00,26.0,23.0,30.03,East,80,22.0,-999.0,89,-99.99,,,-99.99,,2014-02-16 09:42:00,
2014-02-16 09:53:00,26.0,23.0,30.03,East,80,22.0,-999.0,89,-99.99,,,-99.99,,2014-02-16 09:53:00,
2014-02-16 10:00:00,26.0,23.0,29.96,East,80,23.0,-999.0,90,-99.99,,,-99.99,,2014-02-16 10:00:00,
2014-02-16 10:42:00,26.0,23.0,29.96,East,80,23.0,-999.0,90,-99.99,,,-99.99,,2014-02-16 10:42:00,
2014-02-16 10:53:00,26.0,23.0,29.96,East,80,23.0,-999.0,90,-99.99,,,-99.99,,2014-02-16 10:53:00,
2014-02-16 11:00:00,26.0,24.0,29.90,East,80,25.0,-999.0,92,-99.99,,,-99.99,,2014-02-16 11:00:00,
2014-02-16 11:46:00,26.0,24.0,29.90,East,80,25.0,-999.0,92,-99.99,,,-99.99,,2014-02-16 11:46:00,
2014-02-16 11:52:00,26.0,24.0,29.90,East,80,25.0,-999.0,92,-99.99,,,-99.99,,2014-02-16 11:52:00,
2014-02-16 12:00:00,26.0,24.0,29.83,East,80,25.0,-999.0,92,-99.99,,,-99.99,,2014-02-16 12:00:00,
2014-02-16 12:42:00,26.0,24.0,29.83,East,80,25.0,-999.0,92,-99.99,,,-99.99,,2014-02-16 12:42:00,
2014-02-16 12:52:00,26.0,24.0,29.83,East,80,25.0,-999.0,92,-99.99,,,-99.99,,2014-02-16 12:52:00,
2014-02-16 13:00:00,26.0,26.0,29.76,East,80,24.0,-999.0,97,-99.99,,,-99.99,,2014-02-16 13:00:00,
2014-02-16 13:42:00,26.0,26.0,29.76,East,80,24.0,-999.0,97,-99.99,,,-99.99,,2014-02-16 13:42:00,
2014-02-16 13:52:00,26.0,26.0,29.76,East,80,24.0,-999.0,97,-99.99,,,-99.99,,2014-02-16 13:52:00,
2014-02-16 14:00:00,27.0,27.0,29.62,East,80,22.0,-999.0,100,-99.99,,,-99.99,,2014-02-16 14:00:00,
2014-02-16 14:42:00,27.0,27.0,29.62,East,80,22.0,-999.0,100,-99.99,,,-99.99,,2014-02-16 14:42:00,
2014-02-16 14:52:00,27.0,27.0,29.62,East,80,22.0,-999.0,100,-99.99,,,-99.99,,2014-02-16 14:52:00,
2014-02-16 15:00:00,28.0,28.0,29.49,East,80,24.0,-999.0,99,-99.99,,,-99.99,,2014-02-16 15:00:00,
2014-02-16 15:43:00,28.0,28.0,29.49,East,80,24.0,-999.0,99,-99.99,,,-99.99,,2014-02-16 15:43:00,
2014-02-16 15:53:00,28.0,28.0,29.49,East,80,24.0,-999.0,99,-99.99,,,-99.99,,2014-02-16 15:53:00,
2014-02-16 16:00:00,29.0,29.0,29.35,East,80,17.0,-999.0,100,-99.99,,,-99.99,,2014-02-16 16:00:00,
2014-02-16 16:43:00,29.0,29.0,29.35,East,80,17.0,-999.0,100,-99.99,,,-99.99,,2014-02-16 16:43:00,
2014-02-16 16:52:00,29.0,29.0,29.35,East,80,17.0,-999.0,100,-99.99,,,-99.99,,2014-02-16 16:52:00,
2014-02-16 17:00:00,31.0,31.0,29.30,SSE,150,7.0,-999.0,100,-99.99,,,-99.99,,2014-02-16 17:00:00,
2014-02-16 17:42:00,31.0,31.0,29.30,SSE,150,7.0,-999.0,100,-99.99,,,-99.99,,2014-02-16 17:42:00,
2014-02-16 17:52:00,31.0,31.0,29.30,SSE,150,7.0,-999.0,100,-99.99,,,-99.99,,2014-02-16 17:52:00,
2014-02-16 18:00:00,33.0,33.0,29.18,SE,140,11.0,-999.0,100,-99.99,,,-99.99,,2014-02-16 18:00:00,
2014-02-16 18:43:00,33.0,33.0,29.18,SE,140,11.0,-999.0,100,-99.99,,,-99.99,,2014-02-16 18:43:00,
2014-02-16 18:53:00,33.0,33.0,29.18,SE,140,11.0,-999.0,100,-99.99,,,-99.99,,2014-02-16 18:53:00,
2014-02-16 19:00:00,36.0,36.0,29.09,South,170,18.0,-999.0,100,-99.99,,,-99.99,,2014-02-16 19:00:00,
2014-02-16 19:42:00,36.0,36.0,29.09,South,170,18.0,-999.0,100,-99.99,,,-99.99,,2014-02-16 19:42:00,
2014-02-16 19:52:00,36.0,36.0,29.09,South,170,18.0,-999.0,100,-99.99,,,-99.99,,2014-02-16 19:52:00,
2014-02-16 20:00:00,41.0,40.0,29.04,South,190,22.0,-999.0,99,-99.99,,,-99.99,,2014-02-16 20:00:00,
2014-02-16 20:42:00,41.0,40.0,29.04,South,190,22.0,-999.0,99,-99.99,,,-99.99,,2014-02-16 20:42:00,
2014-02-16 20:52:00,41.0,40.0,29.04,South,190,22.0,-999.0,99,-99.99,,,-99.99,,2014-02-16 20:52:00,
2014-02-16 21:00:00,41.0,39.0,28.98,SSW,200,28.0,-999.0,91,-99.99,,,-99.99,,2014-02-16 21:00:00,
2014-02-16 21:43:00,41.0,39.0,28.98,SSW,200,28.0,-999.0,91,-99.99,,,-99.99,,2014-02-16 21:43:00,
2014-02-16 21:53:00,41.0,39.0,28.98,SSW,200,28.0,-999.0,91,-99.99,,,-99.99,,2014-02-16 21:53:00,
2014-02-16 22:00:00,36.0,34.0,28.95,SSW,210,39.0,-999.0,90,-99.99,,,-99.99,,2014-02-16 22:00:00,
2014-02-16 22:42:00,36.0,34.0,28.95,SSW,210,39.0,-999.0,90,-99.99,,,-99.99,,2014-02-16 22:42:00,
2014-02-16 22:53:00,36.0,34.0,28.95,SSW,210,39.0,-999.0,90,-99.99,,,-99.99,,2014-02-16 22:53:00,
2014-02-16 23:00:00,34.0,29.0,28.95,SW,220,38.0,-999.0,82,-99.99,,,-99.99,,2014-02-16 23:00:00,
2014-02-16 23:43:00,34.0,29.0,28.95,SW,220,38.0,-999.0,82,-99.99,,,-99.99,,2014-02-16 23:43:00,
2014-02-16 23:52:00,34.0,29.0,28.95,SW,220,38.0,-999.0,82,-99.99,,,-99.99,,2014-02-16 23:52:00,